Simultaneous Nadir Overpasses (SNOs) Predictions

Prediction of SNOs between GOES-16 and METOP-A Satellite Orbit:

Table of predicted SNOs for the next 14.0 days since TLE Epoch: 10/2/2021
Index Date Time (GOES-16) GOES-16 Lat,Lon METOP-A Lat,Lon Distance(km) Time Diff (sec)
1 10/03/2021 12:54:27 0.06, -75.21 0.00, -74.96 28.31 80
2 10/06/2021 00:52:46 -0.06, -75.20 0.09, -74.62 66.55 80
3 10/07/2021 13:14:16 0.07, -75.23 0.94, -79.22 453.81 80
4 10/08/2021 12:50:56 0.07, -75.24 -0.17, -74.24 113.98 80
5 10/10/2021 01:12:34 -0.08, -75.23 -0.89, -78.87 414.78 80
6 10/11/2021 00:49:14 -0.08, -75.23 0.21, -73.89 153.13 80
7 10/12/2021 13:10:44 0.10, -75.27 0.82, -78.48 366.80 80
8 10/13/2021 12:47:24 0.09, -75.28 -0.28, -73.51 201.33 80
9 10/15/2021 01:09:03 -0.10, -75.27 -0.71, -78.15 326.63 80
10 10/16/2021 00:45:42 -0.10, -75.29 0.34, -73.16 242.07 80
